STARLINK-34771

Satellite information

Favourite Embed

Satellite Type and Status

PAYLOADIN ORBIT

Key statistics

Satellite STARLINK-34771 at a glance.

Uptime

27

Days in orbit

Revolutions

≈ 15.5

Per day

Orbit

LEO

Low Earth Orbit

Inclination

53.2

Latest

Satellite identification and parameters

Extended collection of information and parameters for STARLINK-34771.

Object identification

Identified? True

Debris? False

Object name: STARLINK-34771

International designator: 2025-167A

Object number (NORAD): 65078

Object ID (CCSDS): 65078

Country: UNITED STATES OF AMERICA (US)

Current information (Y/N): Y

RCS size: LARGE

Orbital parameters

Period: 92.748 minutes

Inclination: 53.1593 deg

SMA: 6787.292 km

Apoapsis: 409.882 km

Periapsis: 408.433 km

RAAN: 196.8363 deg

Eccentricy: 0.00010668

Argument of periapsis: 109.2122 deg

Mean anomaly: 306.9597 deg

Mean motion: 15.52594039 rev/day

Mean motion (dot): -0.01625213 rev/day2

B* drag term: -0.02891922 1/REarth

Two-line elements (TLE)

Creation date: Aug. 31, 2025, 2:26 a.m.

Reference frame: TEME

Reference center: EARTH

Epoch: Aug. 30, 2025, 10 p.m. UTC

TLE line 0: 0 STARLINK-34771

TLE line 1: 1 65078U 25167A 25242.91668981 -.01625213 00000-0 -28919-1 0 9992

TLE line 2: 2 65078 53.1593 196.8363 0001067 109.2122 306.9597 15.52594039 5503

Live tracking on map

Real-time ground track for satellite STARLINK-34771.

In-orbit conjunctions

There are no conjunctions computed for STARLINK-34771, at the moment. Check back to stay up to date, as we update our databases every day.

Go to all conjunctions

Associated space launch

A batch of 28 satellites for the Starlink mega-constellation - SpaceX's project for space-based Internet communication system.

STARLINK-34771 was lifted into orbit during the mission ‘Falcon 9 Block 5 | Starlink Group 10-30’, on board a Falcon 9 space rocket.

The launch took place on Aug. 4, 2025, 7:57 a.m. from Space Launch Complex 40.

For more information about the launch, click the button.

Launch to space Falcon 9 Block 5 | Starlink Group 10-30
Falcon 9 Block 5 | Starlink Group 10-30

Agency: SpaceX

Status: Launch Successful

Launch date: Aug. 4, 2025, 7:57 a.m. UTC

Rocket: Falcon 9

Launch pad: Space Launch Complex 40

Location: Cape Canaveral SFS, FL, USA

...

Latest news about this satellite

News about space launch
Live coverage: Starlink mission marks SpaceX’s 450th flight-proven Falcon booster launch

The Starlink 10-30 mission will add 28 more satellites to SpaceX’s low Earth orbit megaconstellation. Liftoff of the Falcon 9 rocket from pad 40 at Cape Canaveral Space Force Station is set for 1:03 a.m. EDT (0503 UTC) on Monday.


Newsletter sign-up

Weekly statistics, charts and insights to help you stay on top of the space industry.